Simultaneous Nadir Overpasses (SNOs) Predictions

Prediction of SNOs between GOES-17 and METOP-C Satellite Orbit:

Table of predicted SNOs for the next 14.0 days since TLE Epoch: 9/7/2019
Index Date Time (GOES-17) GOES-17 Lat,Lon METOP-C Lat,Lon Distance(km) Time Diff (sec)
1 09/08/2019 06:44:50 -0.02,-137.20 -0.23,-138.13 105.55 80
2 09/09/2019 06:21:31 -0.01,-137.20 0.88,-133.13 463.15 80
3 09/10/2019 18:40:22 0.01,-137.19 0.10,-137.70 57.25 80
4 09/13/2019 06:41:24 0.00,-137.18 -0.00,-137.31 13.73 80
5 09/15/2019 18:39:35 -0.00,-137.16 -0.06,-136.86 33.75 80
6 09/17/2019 06:58:36 0.00,-137.15 -0.95,-141.47 491.52 80
7 09/18/2019 06:35:17 0.00,-137.14 0.17,-136.47 76.21 80
8 09/19/2019 18:54:07 -0.00,-137.11 0.89,-141.02 446.26 80
9 09/20/2019 18:36:08 -0.01,-137.09 -0.22,-136.03 120.99 80




NCC Satellite Simultaneous Nadir Overpasses (SNOs) Prediction Service
